Home > Weather > Tábor > Past weeks

Flag for Czech Republic Weather for the Past 2 Weeks in Tábor, Czech Republic

Now
36 °F

Scattered clouds.


Feels Like: 32 °F
Forecast: 31 / 42 °F
Wind: 5 mph from East

Location: Kocelovice

Current Time: Feb 12, 2016 at 6:24:09 PM

Latest Report: Feb 12, 2016 at 5:00 PM


Visibility: 31 mi

Pressure: 29.56 "Hg

Humidity: 67%

Dew point: 26 °F

Location of TáborLocation

Historic Weather in Tábor — Graph

°F

Tábor Temperature Yesterday

Maximum temperature yesterday: 40 °F (at 1:00 PM)
Minimum temperature yesterday: 32 °F (at 8:00 PM)
Average temperature yesterday: 35 °F

High & Low Weather Summary for the Past Weeks

 TemperatureHumidityPressure
High53 °F (Feb 8, 3:00 PM)100% (Feb 4, 8:00 PM)30.39 "Hg (Feb 4, 8:00 PM)
Low30 °F (Feb 6, 8:00 AM)41% (Jan 30, 6:00 PM)29.23 "Hg (Feb 9, 8:00 PM)
Average39 °F77%29.93 "Hg
* Reported Jan 28 4:00 PM — Feb 12 4:00 PM, Tábor, Weather by CustomWeather, © 2016

Note: Actual official high and low records may vary slightly from our data, if they occured in-between our weather recording intervals... More about our weather records

Advertising

Tábor Weather History for the Previous 24 Hours

 ConditionsComfort  
Time TempWeatherWind HumidityBarometerVisibility
4:00 PM
Fri, Feb 12
38 °FScattered clouds.5 mph65%29.58 "Hg34 mi
3:00 PM38 °FPartly sunny.5 mph64%29.59 "Hg28 mi
2:00 PM38 °FPartly sunny.5 mph68%29.61 "Hg7 mi
1:00 PM38 °FPartly sunny.N/A62%29.64 "Hg11 mi
12:00 PM37 °FPartly sunny.N/A75%29.67 "Hg25 mi
11:00 AM35 °FPartly sunny.N/A83%29.70 "Hg16 mi
10:00 AM34 °FLow clouds.N/A91%29.72 "Hg6 mi
9:00 AM31 °FLight snow. Overcast.1 mph96%29.74 "Hg4 mi
8:00 AM31 °FLight snow. Overcast.1 mph92%29.75 "Hg9 mi
7:00 AM30 °FLow clouds.1 mph91%29.75 "Hg10 mi
6:00 AM31 °FChilly.N/A84%29.75 "Hg12 mi
5:00 AM32 °FChilly.1 mph85%29.75 "Hg12 mi
4:00 AM31 °FChilly.1 mph89%29.75 "Hg12 mi
9:00 PM
Thu, Feb 11
32 °FPassing clouds.2 mph88%29.77 "Hg34 mi
8:00 PM32 °FPassing clouds.3 mph89%29.76 "Hg10 mi
7:00 PM33 °FPassing clouds.5 mph87%29.76 "Hg28 mi
6:00 PM34 °FPassing clouds.6 mph82%29.75 "Hg16 mi
Weather by CustomWeather, © 2016

See weather overviewHow to use our weather pages